Other Public Products
Issued by NWS Charleston, SC

Current Version | Previous Version | Graphics & Text | Print | Product List | Glossary On
Versions: 1 2 3 4 5 6 7 8 9 10 11 12 13 14 15 16 17 18 19 20 21 22 23 24 25 26 27 28 29 30 31 32 33 34 35 36 37 38 39 40 41 42 43 44 45 46 47 48 49 50
224
FPUS82 KCHS 242227
OPUCHS

TEST...KCHS/KSAV Gateway Observations...TEST
National Weather Service Charleston SC
500 PM EST FRI NOV 24 2017

NOTE: "fair" indicates few or no clouds below 12,000 feet with no
significant weather and/or obstructions to visibility.

SCZ050-WAZ558-NCZ071-TXZ119-213-PAZ071-DCZ001-FLZ074-172-MI076-
NYZ176-178-MAZ016-IL014-TNZ027-NJZ106-GAZ044-MD014-242300-

...Gateway Observations for Charleston International...

CITY           SKY/WX    TMP DP  RH WIND       PRES   REMARKS
Chas Airport   MOCLDY    59  35  40 N12       29.92R
Seattle        CLOUDY    50  41  71 S10       30.08S
Charlotte      PTCLDY    58  33  39 W3        29.95S
Dallas DFW     MOSUNNY   77  37  23 S16       29.77F
Dallas Love    MOSUNNY   76  36  23 S17       29.79F
Philladelphia  CLEAR     49  27  42 S5        29.98S
Wash National  CLEAR     49  30  48 S9        29.97F
Baltimore      PTCLDY    48  32  53 SE8       29.96F
Miami          PTCLDY    80  64  58 SW10      29.88R
Detroit        PTCLDY    50  34  54 S14       29.67R
Newark         PTCLDY    49  26  41 S8        29.96S
Laguardia      PTCLDY    47  28  47 S9        29.96R
J F K          PTCLDY    44  33  65 S8        29.99R
Boston Logan   PTCLDY    45  29  53 S12       29.93S
Ft. Lauderdale PTCLDY    77  67  71 W8        29.87R
Chicago O`Hare PTCLDY    61  38  42 S21G33    29.45F
Chicago Midway PTCLDY    60  39  45 S18G28    29.48F
Houston Bush   MOSUNNY   71  36  27 S6        29.92F
Houston Hobby  MOSUNNY   71  37  28 S7        29.92F
Nashville      CLOUDY    61  26  26 S9        29.89S
Atlanta        PTCLDY    62  43  49 S3        29.94R

$$

GAZ044-118-TXZ119-213-NCZ071-DCZ001-MDZ014-506-PAZ021-071-NJZ106-
NYZ176-178-MAZ106-OHZ011-021-055-MIZ076-KYZ091-ILZ014-INZ047-
MNZ060-ONZ431-242300-

...Gateway Observations for Savannah International...

CITY           SKY/WX    TMP DP  RH WIND       PRES   REMARKS
Savannah Arpt  PTCLDY    62  39  42 N6        29.94R
Atlanta        PTCLDY    62  43  49 S3        29.94R
Charlotte      PTCLDY    58  33  39 W3        29.95S
Dallas DFW     MOSUNNY   77  37  23 S16       29.77F
Houston Bush   MOSUNNY   71  36  27 S6        29.92F
Wash National  CLEAR     49  30  48 S9        29.97F
Wash Dulles    CLEAR     48  30  49 S6        29.95F
Baltimore      PTCLDY    48  32  53 SE8       29.96F
Philadelphia   CLEAR     49  27  42 S5        29.98S
Newark         PTCLDY    49  26  41 S8        29.96S
Laguardia      PTCLDY    47  28  47 S9        29.96R
J F K          PTCLDY    44  33  65 S8        29.99R
Boston         PTCLDY    45  29  53 S12       29.93S
Pittsburg      PTCLDY    51  20  29 S5        29.82F
Akron          PTCLDY    49  23  36 S12       29.79S
Cleveland      PTCLDY    51  27  39 S15       29.76F
Cincinnati     PTCLDY    53  28  38 S12       29.81S
Columbus       CLEAR     49  27  42 S9        29.81F
Detroit        PTCLDY    50  34  54 S14       29.67R
Chicago O`Hare PTCLDY    61  38  42 S21G33    29.45F
Minneapolis    CLOUDY    53  46  77 NW17G25   29.45R
Indianapolis   PTCLDY    56  32  40 S14       29.73F
Toronto Canada MOCLDY    48  28  46 SW17G24   29.65F

$$




USA.gov is the U.S. government's official web portal to all federal, state and local government web resources and services.